DW4858 Weather Reports


Display with metric or nautical units.
time (UTC)temp
F
wind
direction
speed
MPH
gust
MPH
rain 1hr
in
rain 24hr
in
rain mn
in
humidity
%
barometer
mb
20190923172130 86 188 2.0 4.0 0.00 0.00 0.00 54 1005.2
20190923171603 86 181 2.0 5.0 0.00 0.00 0.00 58 1005.3
20190923171556 85 180 1.0 5.0 0.00 0.00 0.00 58 1005.2
20190923171057 86 159 2.0 4.0 0.00 0.00 0.00 59 1005.4
20190923170545 85 201 2.0 7.0 0.00 0.00 0.00 61 1005.4
20190923170037 85 209 3.0 7.0 0.00 0.00 0.00 60 1005.5
20190923165525 85 214 2.0 7.0 0.00 0.00 0.00 60 1005.6
20190923165010 85 279 2.0 7.0 0.00 0.00 0.00 60 1005.7
20190923164559 84 129 2.0 9.0 0.00 0.00 0.00 63 1005.5
20190923164500 85 110 2.0 9.0 0.00 0.00 0.00 63 1005.6
20190923163949 85 200 2.0 9.0 0.00 0.00 0.00 61 1005.7
20190923163441 85 171 2.0 6.0 0.00 0.00 0.00 62 1005.8
20190923163005 84 205 2.0 7.0 0.00 0.00 0.00 61 1005.8
20190923162936 85 200 2.0 7.0 0.00 0.00 0.00 60 1005.9
20190923162418 85 243 1.0 7.0 0.00 0.00 0.00 60 1006.0
20190923161910 85 328 2.0 7.0 0.00 0.00 0.00 63 1006.0
20190923161631 84 121 2.0 8.0 0.00 0.00 0.00 62 1005.9
20190923161354 85 155 2.0 8.0 0.00 0.00 0.00 63 1006.1
20190923160845 84 70 2.0 8.0 0.00 0.00 0.00 62 1006.2
20190923160335 84 234 2.0 8.0 0.00 0.00 0.00 63 1006.2
20190923160122 83 211 2.0 8.0 0.00 0.00 0.00 64 1006.1
20190923155827 83 211 1.0 8.0 0.00 0.00 0.00 63 1006.3
20190923155311 83 200 2.0 6.0 0.00 0.00 0.00 66 1006.3
20190923154812 82 185 2.0 6.0 0.00 0.00 0.00 65 1006.4
20190923154551 82 166 2.0 6.0 0.00 0.00 0.00 65 1006.2
20190923154259 82 200 2.0 10.0 0.00 0.00 0.00 66 1006.5
20190923153751 82 236 3.0 10.0 0.00 0.00 0.00 67 1006.6
20190923153242 82 221 2.0 6.0 0.00 0.00 0.00 66 1006.6
20190923153024 81 264 3.0 6.0 0.00 0.00 0.00 67 1006.5
20190923152734 82 221 1.0 7.0 0.00 0.00 0.00 68 1006.7
20190923152226 81 282 2.0 7.0 0.00 0.00 0.00 70 1006.9
20190923151719 80 227 1.0 5.0 0.00 0.00 0.00 71 1007.1
20190923151603 79 227 1.0 5.0 0.00 0.00 0.00 71 1006.9
20190923151207 80 144 1.0 4.0 0.00 0.00 0.00 72 1007.1
20190923150706 80 130 2.0 5.0 0.00 0.00 0.00 72 1007.2
20190923150158 80 256 2.0 10.0 0.00 0.00 0.00 70 1007.3
20190923150138 80 215 2.0 10.0 0.00 0.00 0.00 71 1007.2
20190923145651 80 283 1.0 10.0 0.00 0.00 0.00 70 1007.3
20190923145147 80 211 1.0 6.0 0.00 0.00 0.00 71 1007.4
20190923144641 80 120 1.0 6.0 0.00 0.00 0.00 71 1007.4
20190923144556 80 152 1.0 6.0 0.00 0.00 0.00 71 1007.2
20190923144134 80 204 1.0 4.0 0.00 0.00 0.00 72 1007.4
20190923143632 79 207 1.0 7.0 0.00 0.00 0.00 73 1007.4
20190923143127 78 188 2.0 7.0 0.00 0.00 0.00 73 1007.4
20190923143015 78 188 1.0 7.0 0.00 0.00 0.00 74 1007.3
20190923142623 78 238 2.0 10.0 0.00 0.00 0.00 73 1007.5
20190923142119 78 315 2.0 10.0 0.00 0.00 0.00 73 1007.5
20190923141620 78 234 2.0 7.0 0.00 0.00 0.00 73 1007.5
20190923141521 78 253 3.0 7.0 0.00 0.00 0.00 73 1007.4
20190923141118 78 221 2.0 6.0 0.00 0.00 0.00 73 1007.6
20190923140620 78 323 2.0 9.0 0.00 0.00 0.00 74 1007.5
20190923140412 78 200 2.0 9.0 0.00 0.00 0.00 74 1007.6
20190923140249 77 200 2.0 9.0 0.00 0.00 0.00 74 1007.5
20190923135616 77 244 1.0 7.0 0.00 0.00 0.00 75 1007.7
20190923135110 77 192 2.0 7.0 0.00 0.00 0.00 75 1007.7
20190923134603 77 219 2.0 5.0 0.00 0.00 0.00 76 1007.8
20190923134556 76 235 2.0 5.0 0.00 0.00 0.00 76 1007.7
20190923134056 76 180 2.0 5.0 0.00 0.00 0.00 77 1007.9
20190923133549 76 199 1.0 5.0 0.00 0.00 0.00 77 1007.9
20190923133052 75 296 2.0 6.0 0.00 0.00 0.00 79 1008.0
20190923133023 75 250 1.0 5.0 0.00 0.00 0.00 79 1007.9
20190923132544 75 195 2.0 7.0 0.00 0.00 0.00 78 1008.0
20190923132036 75 154 1.0 7.0 0.00 0.00 0.00 79 1008.1
20190923131702 74 180 0.0 7.0 0.00 0.00 0.00 81 1008.1
20190923131527 74 219 2.0 7.0 0.00 0.00 0.00 80 1008.2
20190923131021 74 229 2.0 7.0 0.00 0.00 0.00 81 1008.2
20190923130521 73 252 1.0 6.0 0.00 0.00 0.00 82 1008.2
20190923130135 72 296 1.0 4.0 0.00 0.00 0.00 82 1008.2
20190923130004 73 238 2.0 5.0 0.00 0.00 0.00 82 1008.3
20190923125455 73 190 2.0 8.0 0.00 0.00 0.00 82 1008.3
20190923124947 73 248 2.0 8.0 0.00 0.00 0.00 81 1008.3
20190923124517 73 205 1.0 6.0 0.00 0.00 0.00 82 1008.2
20190923124441 73 236 1.0 6.0 0.00 0.00 0.00 82 1008.3
20190923123936 73 192 1.0 6.0 0.00 0.00 0.00 82 1008.3
20190923123425 72 206 2.0 6.0 0.00 0.00 0.00 84 1008.3
20190923123150 71 267 1.0 6.0 0.00 0.00 0.00 84 1008.2
20190923122915 72 176 1.0 6.0 0.00 0.00 0.00 84 1008.4
20190923122401 71 195 1.0 6.0 0.00 0.00 0.00 85 1008.3
20190923121851 71 210 2.0 6.0 0.00 0.00 0.00 86 1008.4
20190923121513 70 196 1.0 6.0 0.00 0.00 0.00 86 1008.3
20190923121343 70 234 2.0 6.0 0.00 0.00 0.00 87 1008.5
20190923120825 70 167 2.0 6.0 0.00 0.00 0.00 87 1008.5
20190923120315 70 173 1.0 7.0 0.00 0.00 0.00 87 1008.6
20190923120136 69 165 1.0 7.0 0.00 0.00 0.00 87 1008.4
20190923115806 69 218 1.0 7.0 0.00 0.00 0.00 87 1008.5
20190923115255 69 224 1.0 6.0 0.00 0.00 0.00 88 1008.5
20190923114745 69 244 1.0 4.0 0.00 0.00 0.00 88 1008.5
20190923114514 69 189 0.0 3.0 0.00 0.00 0.00 88 1008.3
20190923114236 69 179 1.0 7.0 0.00 0.00 0.00 88 1008.5
20190923113725 69 186 1.0 7.0 0.00 0.00 0.00 88 1008.5
20190923113214 69 247 1.0 4.0 0.00 0.00 0.00 88 1008.5
20190923113153 69 106 1.0 4.0 0.00 0.00 0.00 88 1008.4
20190923112707 69 198 1.0 7.0 0.00 0.00 0.00 88 1008.5
20190923112157 69 241 1.0 7.0 0.00 0.00 0.00 89 1008.5
20190923111650 69 206 1.0 5.0 0.00 0.00 0.00 89 1008.5
20190923111516 68 161 1.0 5.0 0.00 0.00 0.00 89 1008.5
20190923111136 69 179 1.0 5.0 0.00 0.00 0.00 89 1008.5
20190923110625 68 192 1.0 3.0 0.00 0.00 0.00 89 1008.6
20190923110125 68 191 1.0 3.0 0.00 0.00 0.00 89 1008.5
20190923110118 68 191 0.0 3.0 0.00 0.00 0.00 89 1008.6
20190923105607 68 300 0.0 3.0 0.00 0.00 0.00 89 1008.6
20190923105056 68 241 1.0 2.0 0.00 0.00 0.00 89 1008.6
20190923104550 68 240 1.0 5.0 0.00 0.00 0.00 89 1008.6
20190923104526 68 240 0.0 5.0 0.00 0.00 0.00 89 1008.5
20190923104045 68 134 0.0 5.0 0.00 0.00 0.00 89 1008.6
20190923103531 68 221 0.0 2.0 0.00 0.00 0.00 90 1008.7
20190923103118 68 316 0.0 3.0 0.00 0.00 0.00 90 1008.6
20190923103020 68 316 0.0 3.0 0.00 0.00 0.00 90 1008.7
20190923102508 68 230 0.0 3.0 0.00 0.00 0.00 90 1008.7
20190923101955 68 190 0.0 2.0 0.00 0.00 0.00 90 1008.7
20190923101527 67 145 0.0 2.0 0.00 0.00 0.00 90 1008.7
20190923101445 68 145 0.0 2.0 0.00 0.00 0.00 90 1008.8
20190923100935 68 157 0.0 2.0 0.00 0.00 0.00 90 1008.7
20190923100425 68 157 0.0 3.0 0.00 0.00 0.00 89 1008.7
20190923100142 67 140 0.0 3.0 0.00 0.00 0.00 89 1008.6
20190923095919 68 140 0.0 3.0 0.00 0.00 0.00 89 1008.6
20190923095405 68 151 0.0 2.0 0.00 0.00 0.00 89 1008.7
20190923094855 68 239 0.0 3.0 0.00 0.00 0.00 89 1008.7
20190923094536 68 239 0.0 2.0 0.00 0.00 0.00 89 1008.6
20190923094345 68 246 0.0 3.0 0.00 0.00 0.00 89 1008.7
20190923093836 68 246 1.0 4.0 0.00 0.00 0.00 88 1008.7
20190923093325 68 214 0.0 4.0 0.00 0.00 0.00 88 1008.7
20190923093208 68 165 0.0 4.0 0.00 0.00 0.00 88 1008.6
20190923092815 68 194 0.0 2.0 0.00 0.00 0.00 88 1008.7
20190923092317 68 194 0.0 2.0 0.00 0.00 0.00 88 1008.8
20190923091750 68 165 0.0 1.0 0.00 0.00 0.00 88 1008.7
20190923091525 68 165 0.0 2.0 0.00 0.00 0.00 88 1008.7
20190923091239 68 165 0.0 4.0 0.00 0.00 0.00 88 1008.8
20190923090732 69 164 0.0 4.0 0.00 0.00 0.00 87 1008.8
20190923090220 69 180 1.0 3.0 0.00 0.00 0.00 87 1008.7
20190923090153 68 209 0.0 3.0 0.00 0.00 0.00 87 1008.7
20190923085711 69 245 1.0 3.0 0.00 0.00 0.00 87 1008.8
20190923085200 69 177 1.0 4.0 0.00 0.00 0.00 87 1008.9
20190923084651 69 178 1.0 4.0 0.00 0.00 0.00 87 1008.9
20190923084615 68 178 0.0 4.0 0.00 0.00 0.00 87 1008.9
20190923084141 69 196 1.0 3.0 0.00 0.00 0.00 86 1009.0
20190923083631 69 221 1.0 3.0 0.00 0.00 0.00 86 1009.0
20190923083144 69 265 1.0 3.0 0.00 0.00 0.00 86 1009.1
20190923083121 69 265 1.0 3.0 0.00 0.00 0.00 86 1009.1
20190923082610 69 138 1.0 3.0 0.00 0.00 0.00 85 1009.2
20190923082101 69 138 1.0 3.0 0.00 0.00 0.00 85 1009.2
20190923081558 69 137 1.0 4.0 0.00 0.00 0.00 85 1009.2
20190923081545 69 137 0.0 4.0 0.00 0.00 0.00 85 1009.1
20190923081037 69 216 1.0 4.0 0.00 0.00 0.00 85 1009.2
20190923080527 70 215 1.0 3.0 0.00 0.00 0.00 84 1009.2
20190923080126 69 192 1.0 3.0 0.00 0.00 0.00 84 1009.1
20190923080017 70 192 1.0 4.0 0.00 0.00 0.00 84 1009.2
20190923075502 70 186 1.0 5.0 0.00 0.00 0.00 84 1009.2
20190923075006 70 262 1.0 5.0 0.00 0.00 0.00 85 1009.3
20190923074558 69 207 1.0 3.0 0.00 0.00 0.00 85 1009.2
20190923074454 69 204 1.0 4.0 0.00 0.00 0.00 85 1009.3
20190923073944 69 246 1.0 4.0 0.00 0.00 0.00 85 1009.3
20190923073436 69 200 1.0 3.0 0.00 0.00 0.00 85 1009.3
20190923073023 69 149 0.0 7.0 0.00 0.00 0.00 85 1009.3
20190923072940 69 190 1.0 7.0 0.00 0.00 0.00 85 1009.4
20190923072428 69 288 1.0 7.0 0.00 0.00 0.00 85 1009.4
20190923071917 69 247 1.0 2.0 0.00 0.00 0.00 85 1009.5
20190923071619 69 236 0.0 3.0 0.00 0.00 0.00 85 1009.5
20190923071409 69 234 1.0 3.0 0.00 0.00 0.00 84 1009.5
20190923070855 69 202 0.0 2.0 0.00 0.00 0.00 84 1009.6
20190923070342 69 167 1.0 2.0 0.00 0.00 0.00 83 1009.6
20190923070027 69 167 0.0 2.0 0.00 0.00 0.00 83 1009.7
20190923065835 70 167 1.0 2.0 0.00 0.00 0.00 83 1009.7
20190923065326 70 169 0.0 4.0 0.00 0.00 0.00 83 1009.7
20190923064818 70 169 0.0 4.0 0.00 0.00 0.00 82 1009.7
20190923064617 69 190 0.0 2.0 0.00 0.00 0.00 82 1009.7
20190923064311 70 172 1.0 5.0 0.00 0.00 0.00 82 1009.8
20190923063813 70 150 1.0 5.0 0.00 0.00 0.00 82 1009.8
20190923063256 70 167 1.0 4.0 0.00 0.00 0.00 83 1009.9
20190923063135 69 167 1.0 4.0 0.00 0.00 0.00 83 1009.9
20190923062749 70 205 1.0 4.0 0.00 0.00 0.00 83 1010.0
20190923062241 69 209 1.0 4.0 0.00 0.00 0.00 84 1010.0
20190923061737 69 206 1.0 4.0 0.00 0.00 0.00 84 1010.0
20190923061527 68 158 1.0 5.0 0.00 0.00 0.00 85 1010.1
20190923061230 68 185 1.0 5.0 0.00 0.00 0.00 84 1010.1
20190923060728 69 182 0.0 5.0 0.00 0.00 0.00 84 1010.2
20190923060224 69 146 0.0 1.0 0.00 0.00 0.00 83 1010.3
20190923060201 68 146 0.0 1.0 0.00 0.00 0.00 82 1010.3
20190923055720 69 146 0.0 3.0 0.00 0.00 0.00 82 1010.3
20190923055217 69 146 1.0 3.0 0.00 0.00 0.00 82 1010.4
20190923054710 69 146 1.0 3.0 0.00 0.00 0.00 81 1010.4
20190923054639 69 146 0.0 3.0 0.00 0.00 0.00 81 1010.4
20190923054207 69 188 1.0 4.0 0.00 0.00 0.00 81 1010.5
20190923053656 70 189 1.0 4.0 0.00 0.00 0.00 80 1010.6
20190923053151 70 209 1.0 4.0 0.00 0.00 0.00 80 1010.7
20190923053110 69 209 1.0 3.0 0.00 0.00 0.00 80 1010.6
20190923052645 70 169 1.0 4.0 0.00 0.00 0.00 80 1010.8
20190923052138 70 146 1.0 3.0 0.00 0.00 0.00 80 1010.9
20190923051638 70 157 1.0 4.0 0.00 0.00 0.00 80 1010.9
20190923051528 70 160 1.0 3.0 0.00 0.00 0.00 79 1010.8
20190923051136 70 161 1.0 4.0 0.00 0.00 0.00 79 1011.0
20190923050620 70 226 1.0 5.0 0.00 0.00 0.00 79 1011.0
20190923050138 70 168 1.0 5.0 0.00 0.00 0.00 79 1011.0
20190923050109 70 168 1.0 5.0 0.00 0.00 0.00 79 1011.0
20190923045603 70 225 1.0 4.0 0.00 0.00 0.00 79 1011.0
20190923045054 71 150 1.0 4.0 0.00 0.00 0.00 79 1011.0
20190923044555 71 190 1.0 4.0 0.00 0.00 0.00 78 1011.0
20190923044540 70 203 1.0 4.0 0.00 0.00 0.00 78 1011.0
20190923044048 70 241 1.0 6.0 0.00 0.00 0.00 78 1011.0
20190923043557 70 157 1.0 6.0 0.00 0.00 0.00 79 1011.1
20190923043057 70 150 1.0 3.0 0.00 0.00 0.00 79 1011.0
20190923043043 70 150 1.0 4.0 0.00 0.00 0.00 79 1011.1
20190923042547 70 163 1.0 6.0 0.00 0.00 0.00 80 1011.1
20190923042038 70 184 1.0 5.0 0.00 0.00 0.00 81 1011.2
20190923041727 69 279 1.0 4.0 0.00 0.00 0.00 81 1011.3
20190923041532 69 190 0.0 3.0 0.00 0.00 0.00 81 1011.3
20190923041023 69 179 0.0 3.0 0.00 0.00 0.00 81 1011.3
20190923040511 69 163 0.0 6.0 0.00 0.00 0.00 81 1011.4
20190923040056 69 42 0.0 6.0 0.00 0.00 0.00 81 1011.4
20190923040005 69 169 0.0 2.0 0.00 0.00 0.00 81 1011.5
20190923035442 69 259 0.0 2.0 0.00 0.00 0.00 81 1011.5
20190923034933 69 259 0.0 2.0 0.00 0.00 0.00 81 1011.6
20190923034653 69 259 0.0 2.0 0.00 0.00 0.00 81 1011.6
20190923034422 69 259 0.0 2.0 0.00 0.00 0.00 81 1011.7
20190923033912 69 244 0.0 2.0 0.00 0.00 0.00 81 1011.6
20190923033402 70 244 0.0 2.0 0.00 0.00 0.00 81 1011.7
20190923033120 69 244 0.0 3.0 0.00 0.00 0.00 81 1011.8
20190923032853 70 244 0.0 3.0 0.00 0.00 0.00 81 1011.8
20190923032342 70 244 0.0 3.0 0.00 0.00 0.00 80 1011.9
20190923031832 70 144 0.0 3.0 0.00 0.00 0.00 80 1011.9
20190923031640 70 138 0.0 3.0 0.00 0.00 0.00 80 1011.9
20190923031322 70 215 0.0 2.0 0.00 0.00 0.00 80 1011.9
20190923030813 71 215 1.0 2.0 0.00 0.00 0.00 79 1012.0
20190923030258 71 217 1.0 2.0 0.00 0.00 0.00 79 1012.1
20190923030050 70 217 0.0 2.0 0.00 0.00 0.00 79 1012.1
20190923025748 71 217 1.0 3.0 0.00 0.00 0.00 79 1012.1
20190923025240 71 212 1.0 4.0 0.00 0.00 0.00 79 1012.1
20190923024729 71 152 1.0 2.0 0.00 0.00 0.00 79 1012.1
20190923024652 71 186 0.0 3.0 0.00 0.00 0.00 79 1012.2
20190923024219 71 187 2.0 7.0 0.00 0.00 0.00 79 1012.1
20190923023709 71 187 2.0 6.0 0.00 0.00 0.00 79 1012.2
20190923023158 71 168 2.0 5.0 0.00 0.00 0.00 79 1012.2
20190923023029 71 168 1.0 5.0 0.00 0.00 0.00 79 1012.2
20190923022649 71 193 1.0 3.0 0.00 0.00 0.00 79 1012.3
20190923022139 71 166 1.0 3.0 0.00 0.00 0.00 79 1012.3
20190923021717 71 185 1.0 3.0 0.00 0.00 0.00 78 1012.5
20190923021634 71 185 1.0 3.0 0.00 0.00 0.00 78 1012.4
20190923021117 72 211 1.0 3.0 0.00 0.00 0.00 78 1012.5
20190923020618 72 176 1.0 3.0 0.00 0.00 0.00 78 1012.6
20190923020144 71 187 1.0 4.0 0.00 0.00 0.00 78 1012.6
20190923020054 72 187 1.0 4.0 0.00 0.00 0.00 78 1012.6
20190923015550 72 188 1.0 4.0 0.00 0.00 0.00 77 1012.7
20190923015039 72 167 1.0 4.0 0.00 0.00 0.00 77 1012.7
20190923014729 72 265 0.0 4.0 0.00 0.00 0.00 77 1012.7
20190923014530 72 265 2.0 4.0 0.00 0.00 0.00 77 1012.8
20190923014018 72 169 1.0 4.0 0.00 0.00 0.00 77 1012.8
20190923013508 72 240 1.0 6.0 0.00 0.00 0.00 76 1012.8
20190923013125 72 204 1.0 6.0 0.00 0.00 0.00 76 1012.8
20190923012954 72 204 1.0 6.0 0.00 0.00 0.00 76 1012.8
20190923012444 72 215 1.0 3.0 0.00 0.00 0.00 76 1012.8
20190923011936 72 223 1.0 5.0 0.00 0.00 0.00 76 1012.9
20190923011631 72 223 1.0 4.0 0.00 0.00 0.00 75 1013.0
20190923011424 72 176 2.0 5.0 0.00 0.00 0.00 75 1013.0
20190923010920 72 165 1.0 5.0 0.00 0.00 0.00 75 1013.1
20190923010357 73 173 1.0 3.0 0.00 0.00 0.00 75 1013.1
20190923010045 72 187 0.0 2.0 0.00 0.00 0.00 74 1013.1
20190923005845 73 187 1.0 2.0 0.00 0.00 0.00 74 1013.0
20190923005337 73 188 1.0 5.0 0.00 0.00 0.00 73 1013.0
20190923004828 73 192 1.0 5.0 0.00 0.00 0.00 72 1013.0
20190923004658 73 170 0.0 4.0 0.00 0.00 0.00 72 1013.1
20190923004329 73 170 1.0 4.0 0.00 0.00 0.00 72 1013.1
20190923003809 73 196 1.0 3.0 0.00 0.00 0.00 71 1013.1
20190923003257 73 205 1.0 6.0 0.00 0.00 0.00 71 1013.1
20190923002747 73 246 1.0 6.0 0.00 0.00 0.00 71 1013.1
20190923002243 74 240 1.0 3.0 0.00 0.00 0.00 70 1013.1
20190923001739 73 197 1.0 6.0 0.00 0.00 0.00 70 1013.1
20190923001509 73 198 0.0 5.0 0.00 0.00 0.00 70 1013.1
20190923001227 73 197 1.0 6.0 0.00 0.00 0.00 70 1013.0
20190923000725 73 234 1.0 3.0 0.00 0.00 0.00 70 1013.0
20190923000215 73 251 0.0 2.0 0.00 0.00 0.00 70 1013.1
20190923000137 73 251 0.0 2.0 0.00 0.00 0.00 70 1013.1
20190922235707 74 251 0.0 2.0 0.00 0.00 0.00 69 1013.1
20190922235205 74 251 0.0 1.0 0.00 0.00 0.00 68 1013.1
20190922234654 74 251 0.0 2.0 0.00 0.00 0.00 69 1013.0
20190922234626 73 251 0.0 2.0 0.00 0.00 0.00 69 1013.1
20190922234150 74 251 0.0 2.0 0.00 0.00 0.00 69 1013.0
20190922233648 74 251 0.0 1.0 0.00 0.00 0.00 69 1013.0
20190922233139 74 251 0.0 1.0 0.00 0.00 0.00 70 1013.0
20190922233018 73 251 0.0 1.0 0.00 0.00 0.00 70 1013.0
20190922232637 74 251 0.0 1.0 0.00 0.00 0.00 68 1013.0
20190922232127 75 251 0.0 0.0 0.00 0.00 0.00 68 1013.0
20190922231650 75 251 0.0 0.0 0.00 0.00 0.00 66 1013.0
20190922231636 75 251 0.0 0.0 0.00 0.00 0.00 67 1013.0
20190922231121 75 251 0.0 2.0 0.00 0.00 0.00 66 1012.9
20190922230630 76 251 0.0 2.0 0.00 0.00 0.00 65 1013.0
20190922230140 75 251 0.0 0.0 0.00 0.00 0.00 65 1013.0
20190922230112 76 251 0.0 0.0 0.00 0.00 0.00 65 1013.0
20190922225602 76 251 0.0 2.0 0.00 0.00 0.00 65 1013.0
20190922225100 76 251 0.0 2.0 0.00 0.00 0.00 64 1013.0
20190922224558 76 188 0.0 2.0 0.00 0.00 0.00 64 1013.1
20190922224555 76 188 0.0 2.0 0.00 0.00 0.00 64 1013.1
20190922224054 77 188 0.0 2.0 0.00 0.00 0.00 63 1013.1
20190922223549 77 188 0.0 1.0 0.00 0.00 0.00 63 1013.1
20190922223033 77 188 0.0 1.0 0.00 0.00 0.00 63 1013.2
20190922223004 77 188 0.0 1.0 0.00 0.00 0.00 63 1013.2
20190922222528 78 188 0.0 1.0 0.00 0.00 0.00 62 1013.1
20190922222025 78 188 0.0 0.0 0.00 0.00 0.00 61 1013.1
20190922221629 78 188 0.0 2.0 0.00 0.00 0.00 61 1013.0
20190922221519 78 188 0.0 2.0 0.00 0.00 0.00 61 1013.0
20190922221014 78 188 0.0 2.0 0.00 0.00 0.00 61 1013.0
20190922220506 79 188 0.0 2.0 0.00 0.00 0.00 60 1013.0
20190922220049 78 188 0.0 2.0 0.00 0.00 0.00 58 1013.1
20190922220007 79 188 0.0 3.0 0.00 0.00 0.00 58 1013.1
20190922215500 79 188 1.0 5.0 0.00 0.00 0.00 58 1013.1
20190922214947 80 188 0.0 5.0 0.00 0.00 0.00 56 1013.2
20190922214544 80 173 0.0 3.0 0.00 0.00 0.00 56 1013.2
20190922214439 80 241 0.0 3.0 0.00 0.00 0.00 56 1013.2
20190922213943 80 173 0.0 5.0 0.00 0.00 0.00 54 1013.2
20190922213425 80 173 0.0 5.0 0.00 0.00 0.00 52 1013.2
20190922213137 80 178 0.0 3.0 0.00 0.00 0.00 52 1013.2
20190922212912 81 178 1.0 3.0 0.00 0.00 0.00 53 1013.2
20190922212359 81 179 1.0 4.0 0.00 0.00 0.00 52 1013.2
20190922211849 82 245 1.0 4.0 0.00 0.00 0.00 51 1013.3
20190922211549 81 207 1.0 4.0 0.00 0.00 0.00 51 1013.4
20190922211340 82 175 2.0 5.0 0.00 0.00 0.00 51 1013.4
20190922210829 82 175 2.0 5.0 0.00 0.00 0.00 49 1013.4
20190922210318 82 217 1.0 3.0 0.00 0.00 0.00 51 1013.4
20190922210207 82 213 0.0 4.0 0.00 0.00 0.00 50 1013.4
20190922205809 83 213 1.0 5.0 0.00 0.00 0.00 50 1013.4
20190922205259 83 287 1.0 5.0 0.00 0.00 0.00 48 1013.4
20190922204750 83 180 1.0 4.0 0.00 0.00 0.00 48 1013.5
20190922204535 83 180 0.0 4.0 0.00 0.00 0.00 48 1013.5
20190922204234 83 203 1.0 4.0 0.00 0.00 0.00 47 1013.5
20190922203738 84 134 1.0 7.0 0.00 0.00 0.00 47 1013.5
20190922203232 84 248 2.0 7.0 0.00 0.00 0.00 46 1013.5
20190922203220 83 157 1.0 7.0 0.00 0.00 0.00 46 1013.6
20190922202718 84 226 2.0 7.0 0.00 0.00 0.00 46 1013.5
20190922202207 84 175 1.0 7.0 0.00 0.00 0.00 45 1013.6
20190922201704 84 241 1.0 8.0 0.00 0.00 0.00 45 1013.6
20190922201610 83 242 1.0 7.0 0.00 0.00 0.00 45 1013.6
20190922201154 84 194 2.0 8.0 0.00 0.00 0.00 45 1013.6
20190922200643 84 193 1.0 7.0 0.00 0.00 0.00 45 1013.7
20190922200133 83 288 1.0 7.0 0.00 0.00 0.00 45 1013.8
20190922195638 83 233 2.0 10.0 0.00 0.00 0.00 45 1013.9
20190922195115 84 198 2.0 10.0 0.00 0.00 0.00 44 1013.9
20190922194607 84 258 2.0 4.0 0.00 0.00 0.00 42 1014.1
20190922194605 84 258 1.0 3.0 0.00 0.00 0.00 42 1014.2
20190922194053 85 166 1.0 6.0 0.00 0.00 0.00 42 1014.0
20190922193548 85 201 1.0 6.0 0.00 0.00 0.00 41 1014.0
20190922193224 84 206 1.0 5.0 0.00 0.00 0.00 41 1014.2
20190922193036 85 189 1.0 5.0 0.00 0.00 0.00 42 1014.2
20190922192525 85 137 1.0 5.0 0.00 0.00 0.00 41 1014.3
20190922192016 85 244 2.0 5.0 0.00 0.00 0.00 41 1014.3
20190922191543 84 161 1.0 7.0 0.00 0.00 0.00 40 1014.3
20190922191458 85 114 2.0 7.0 0.00 0.00 0.00 41 1014.4
20190922190953 85 297 2.0 7.0 0.00 0.00 0.00 39 1014.5
20190922190439 84 177 2.0 7.0 0.00 0.00 0.00 39 1014.6
20190922190153 84 162 2.0 7.0 0.00 0.00 0.00 39 1014.8
20190922185929 84 107 2.0 8.0 0.00 0.00 0.00 37 1014.8
20190922185419 84 157 2.0 8.0 0.00 0.00 0.00 37 1014.9
20190922184908 84 215 1.0 4.0 0.00 0.00 0.00 39 1014.9
20190922184546 83 236 1.0 5.0 0.00 0.00 0.00 37 1014.9
20190922184407 84 214 1.0 5.0 0.00 0.00 0.00 37 1014.8
20190922183847 84 231 2.0 7.0 0.00 0.00 0.00 38 1014.9
20190922183338 85 171 2.0 7.0 0.00 0.00 0.00 39 1015.0
20190922182831 85 287 2.0 8.0 0.00 0.00 0.00 38 1015.0
20190922182317 85 299 1.0 8.0 0.00 0.00 0.00 37 1014.9
20190922181807 85 135 2.0 10.0 0.00 0.00 0.00 38 1015.0
20190922181623 84 147 0.0 10.0 0.00 0.00 0.00 38 1015.0
20190922181257 85 142 2.0 10.0 0.00 0.00 0.00 38 1015.0
20190922180747 85 267 1.0 6.0 0.00 0.00 0.00 38 1015.1
20190922180237 85 273 2.0 6.0 0.00 0.00 0.00 38 1015.1
20190922180004 84 87 0.0 4.0 0.00 0.00 0.00 37 1015.2
20190922175727 84 284 2.0 7.0 0.00 0.00 0.00 37 1015.2
20190922175223 84 325 2.0 7.0 0.00 0.00 0.00 39 1015.3
20190922174707 85 186 2.0 7.0 0.00 0.00 0.00 40 1015.3
20190922174602 84 237 2.0 7.0 0.00 0.00 0.00 40 1015.4
20190922174157 85 216 2.0 4.0 0.00 0.00 0.00 40 1015.4
20190922173648 85 244 1.0 5.0 0.00 0.00 0.00 41 1015.5
20190922173139 84 265 1.0 5.0 0.00 0.00 0.00 41 1015.4
20190922173008 84 254 1.0 5.0 0.00 0.00 0.00 42 1015.4
20190922172626 84 199 2.0 9.0 0.00 0.00 0.00 41 1015.4